EW8311 Weather Reports


time (UTC)temp
F
wind
direction
speed
knots
gust
knots
rain 1hr
in
rain 24hr
in
rain mn
in
humidity
%
barometer
mb
20260904194541 91 281 0.9 4.3 0.00 0.00 0.00 42 1006.0
20260904193045 92 341 0.9 5.2 0.00 0.00 0.00 42 1006.2
20260904191541 91 207 1.7 6.1 0.00 0.00 0.00 41 1006.6
20260904190037 91 238 1.7 5.2 0.00 0.00 0.00 42 1006.7
20260904184541 90 283 1.7 4.3 0.00 0.00 0.00 45 1006.9
20260904183031 89 285 1.7 6.1 0.00 0.00 0.00 46 1007.1
20260904181532 87 285 2.6 5.2 0.00 0.00 0.00 51 1007.4
20260904180024 86 318 1.7 6.1 0.00 0.00 0.00 52 1007.7
20260904174526 85 299 0.9 4.3 0.00 0.00 0.00 53 1007.8
20260904173020 85 309 1.7 7.0 0.00 0.00 0.00 55 1007.9
20260904171525 85 304 0.9 7.8 0.00 0.00 0.00 57 1008.0
20260904170016 84 307 1.7 5.2 0.00 0.00 0.00 58 1008.1
20260904164514 83 302 1.7 5.2 0.00 0.00 0.00 60 1008.0
20260904163018 82 243 0.9 6.1 0.00 0.00 0.00 61 1008.0
20260904161515 82 243 0.9 2.6 0.00 0.00 0.00 61 1007.9
20260904160007 81 339 0.0 3.5 0.00 0.00 0.00 64 1007.9
20260904154509 80 266 0.0 2.6 0.00 0.00 0.00 65 1007.9
20260904153004 80 248 0.9 5.2 0.00 0.00 0.00 65 1007.9
20260904151502 80 312 0.0 4.3 0.00 0.00 0.00 68 1007.9
20260904150002 79 305 0.9 2.6 0.00 0.00 0.00 68 1007.8
20260904144502 78 302 0.0 1.7 0.00 0.00 0.00 70 1007.9
20260904143100 77 317 0.9 4.3 0.00 0.00 0.00 71 1007.7
20260904141602 76 266 0.0 0.9 0.00 0.00 0.00 74 1007.6
20260904140056 75 332 0.0 1.7 0.00 0.00 0.00 75 1007.5
20260904134601 75 332 0.0 1.7 0.00 0.00 0.00 77 1007.3
20260904133053 74 323 0.0 0.0 0.00 0.00 0.00 79 1007.0
20260904131552 74 323 0.0 0.0 0.00 0.00 0.00 77 1006.8
20260904130047 74 323 0.0 0.0 0.00 0.00 0.00 76 1006.6
20260904124555 75 323 0.0 0.0 0.00 0.00 0.00 72 1006.2
20260904123042 76 323 0.0 0.0 0.00 0.00 0.00 70 1006.0
20260904121539 78 323 0.0 0.9 0.00 0.00 0.00 67 1005.8
20260904120043 77 321 0.0 2.6 0.00 0.00 0.00 68 1005.8
20260904114542 77 276 0.0 0.0 0.00 0.00 0.00 69 1005.7
20260904113045 78 275 0.0 0.0 0.00 0.00 0.00 67 1005.8
20260904111535 78 310 1.7 3.5 0.00 0.00 0.00 67 1005.8
20260904110035 78 311 0.0 0.0 0.00 0.00 0.00 69 1005.8
20260904104534 78 311 0.0 0.0 0.00 0.00 0.00 67 1005.8
20260904103038 78 311 0.0 0.0 0.00 0.00 0.00 66 1005.8
20260904101531 78 311 0.0 0.0 0.00 0.00 0.00 66 1005.8
20260904100031 78 310 0.0 0.0 0.00 0.00 0.00 66 1005.8
20260904094534 78 316 0.0 1.7 0.00 0.00 0.00 67 1005.7
20260904093030 78 314 0.9 2.6 0.00 0.00 0.00 67 1005.6
20260904091529 78 304 0.0 0.0 0.00 0.00 0.00 67 1005.7
20260904090028 78 319 0.9 1.7 0.00 0.00 0.00 67 1005.7
20260904084527 79 326 0.0 1.7 0.00 0.00 0.00 65 1005.7
20260904083026 78 325 0.0 0.9 0.00 0.00 0.00 66 1005.7
20260904081523 79 321 0.0 0.0 0.00 0.00 0.00 65 1005.9
20260904080021 79 321 0.0 0.9 0.00 0.00 0.00 64 1005.9
20260904074524 80 321 0.9 1.7 0.00 0.00 0.00 63 1005.8
20260904073019 80 321 0.0 2.6 0.00 0.00 0.00 62 1005.8
20260904071516 80 316 0.9 1.7 0.00 0.00 0.00 63 1005.9
20260904070015 80 311 1.7 3.5 0.00 0.00 0.00 63 1006.0
20260904064513 80 313 1.7 3.5 0.00 0.00 0.00 63 1006.0
20260904063013 80 319 0.9 5.2 0.00 0.00 0.00 62 1006.0
20260904061512 80 314 0.9 4.3 0.00 0.00 0.00 61 1006.0
20260904060012 79 328 0.0 1.7 0.00 0.00 0.00 63 1005.9
20260904054512 78 319 0.9 2.6 0.00 0.00 0.00 66 1005.8
20260904053011 78 109 0.0 0.0 0.00 0.00 0.00 67 1005.8
20260904051516 79 108 0.0 1.7 0.00 0.00 0.00 65 1005.8
20260904050009 79 123 0.0 0.0 0.00 0.00 0.00 65 1005.8
20260904044511 79 124 0.0 0.0 0.00 0.00 0.00 64 1005.8
20260904043009 80 123 0.0 0.0 0.00 0.00 0.00 62 1005.8
20260904041510 81 123 0.0 0.0 0.00 0.00 0.00 63 1005.8
20260904040009 82 123 0.0 0.0 0.00 0.00 0.00 59 1005.8
20260904034507 82 93 0.0 0.0 0.00 0.00 0.00 57 1005.6
20260904033007 82 113 0.9 3.5 0.00 0.00 0.00 57 1005.5
20260904031505 82 113 0.0 0.0 0.00 0.00 0.00 57 1005.2
20260904030005 83 113 0.0 1.7 0.00 0.00 0.00 55 1005.1
20260904024505 83 279 0.0 3.5 0.00 0.00 0.00 55 1005.0
20260904023004 83 128 0.0 1.7 0.00 0.00 0.00 56 1004.6
20260904021504 83 108 0.0 0.0 0.00 0.00 0.00 56 1004.6
20260904020003 84 108 0.0 0.9 0.00 0.00 0.00 56 1004.5
20260904014502 84 108 0.0 3.5 0.00 0.00 0.00 54 1004.4
20260904013003 85 120 0.0 7.0 0.00 0.00 0.00 52 1004.3
20260904011504 88 193 2.6 6.1 0.00 0.00 0.00 48 1003.9
20260904010100 89 250 1.7 6.1 0.00 0.00 0.00 48 1003.6
20260904004604 89 327 1.7 4.3 0.00 0.00 0.00 46 1003.7
20260904003102 89 305 1.7 6.1 0.00 0.00 0.00 46 1003.6
20260904001601 89 318 1.7 6.1 0.00 0.00 0.00 47 1003.3
20260904000139 89 333 1.7 7.0 0.00 0.00 0.00 45 1003.6
20260903234558 89 325 1.7 5.2 0.00 0.00 0.00 45 1003.4
20260903233058 89 257 2.6 6.1 0.00 0.00 0.00 44 1003.4
20260903231612 90 257 0.9 5.2 0.00 0.00 0.00 43 1003.5
20260903230104 91 323 0.9 5.2 0.00 0.00 0.00 41 1003.4
20260903224558 93 291 2.6 6.1 0.00 0.00 0.00 39 1003.4
20260903223056 92 276 0.9 5.2 0.00 0.00 0.00 40 1003.4
20260903221554 94 325 0.9 3.5 0.00 0.00 0.00 36 1003.5
20260903220106 95 210 0.9 5.2 0.00 0.00 0.00 37 1003.8
20260903214552 93 322 0.0 4.3 0.00 0.00 0.00 39 1003.8
20260903213049 93 285 0.0 5.2 0.00 0.00 0.00 39 1004.1
20260903211544 91 238 1.7 7.0 0.00 0.00 0.00 41 1004.3
20260903210048 92 328 0.9 4.3 0.00 0.00 0.00 42 1004.4
20260903204539 91 132 0.0 3.5 0.00 0.00 0.00 42 1004.6
20260903203042 91 314 0.9 3.5 0.00 0.00 0.00 43 1004.9
20260903201533 91 266 1.7 4.3 0.00 0.00 0.00 43 1005.1
20260903200031 90 323 0.9 3.5 0.00 0.00 0.00 46 1005.5